Ketchikan, AK

11:32 PM AKST on November 16, 2018 (GMT -0900)
Ketchikan International

Weather History for PAKT - November, 2018

Change the Weather History Date:

Friday, November 9, 2018

  Actual Average Record
Temperature  
Mean Temperature 46 °F -  
Max Temperature 46 °F 45 °F 57 °F (1952)
Min Temperature 43 °F 34 °F 15 °F (1973)
Degree Days  
Heating Degree Days 20    
Moisture  
Dew Point 43 °F    
Average Humidity 91    
Maximum Humidity 97    
Minimum Humidity 82    
Precipitation  
Precipitation 0.05 in - - ()
Sea Level Pressure  
Sea Level Pressure 30.23 in    
Wind  
Wind Speed 4 mph (SSE)    
Max Wind Speed 8 mph    
Max Gust Speed -    
Visibility 9 miles    
Events Rain    
Averages and records for this station are not official NWS values.
T = Trace of Precipitation, MM = Missing Value Source: NWS Daily Summary

Daily Weather History Graph

Daily Weather History Graph

Search for Another Location

Airport or City:

Astronomy

Nov. 09, 2018 Rise Set
Actual Time 7:08 AM AKST 3:51 PM AKST
Civil Twilight 6:28 AM AKST 4:32 PM AKST
Nautical Twilight 5:44 AM AKST 5:16 PM AKST
Astronomical Twilight 5:01 AM AKST 5:59 PM AKST
Moon 9:15 AM AKST (11/9) 5:30 PM AKST (11/9)
Length of Visible Light 10h 03m
Length of Day
8h 43m
Waxing Crescent, 5% of the Moon is Illuminated
Nov 9
Waxing Crescent
Nov 15
First Quarter
Nov 22
Full
Nov 29
Last Quarter
Dec 6
New

Hourly Weather History & Observations

Time (AKST) Temp. Windchill Dew Point Humidity Pressure Visibility Wind Dir Wind Speed Gust Speed Precip Events Conditions
12:53 AM 45.0 °F 42.6 °F 43.0 °F 93% 30.14 in 10.0 mi ESE 4.6 mph - 0.00 in   Mostly Cloudy
1:53 AM 45.0 °F 42.6 °F 44.1 °F 97% 30.15 in 10.0 mi SE 4.6 mph - 0.00 in Rain Light Rain
2:53 AM 45.0 °F 42.6 °F 43.0 °F 93% 30.16 in 5.0 mi SE 4.6 mph - 0.01 in Rain Light Rain
3:53 AM 45.0 °F 42.6 °F 43.0 °F 93% 30.16 in 10.0 mi South 4.6 mph - 0.01 in   Overcast
4:17 AM 45.0 °F 42.6 °F 43.0 °F 93% 30.15 in 10.0 mi SSE 4.6 mph - N/A   Overcast
4:31 AM 45.0 °F 42.6 °F 43.0 °F 93% 30.16 in 10.0 mi SE 4.6 mph - 0.00 in Rain Light Rain
4:53 AM 45.0 °F - 43.0 °F 93% 30.17 in 7.0 mi Calm Calm - 0.01 in Rain Light Rain
5:33 AM 46.0 °F - 43.0 °F 89% 30.16 in 10.0 mi Calm Calm - 0.00 in   Overcast
5:48 AM 44.6 °F - 42.8 °F 93% 30.16 in 10.0 mi Calm Calm - 0.00 in   Mostly Cloudy
5:51 AM 44.6 °F - 42.8 °F 93% 30.16 in 10.0 mi Calm Calm - 0.00 in   Mostly Cloudy
5:53 AM 45.0 °F 43.5 °F 43.0 °F 93% 30.17 in 10.0 mi SSE 3.5 mph - 0.00 in   Mostly Cloudy
6:01 AM 45.0 °F 43.5 °F 43.0 °F 93% 30.17 in 10.0 mi SSE 3.5 mph - N/A   Scattered Clouds
6:16 AM 44.6 °F 42.2 °F 42.8 °F 93% 30.16 in 10.0 mi SSE 4.6 mph - N/A   Mostly Cloudy
6:53 AM 43.0 °F 40.3 °F 41.0 °F 93% 30.18 in 10.0 mi SSW 4.6 mph - N/A   Mostly Cloudy
7:53 AM 45.0 °F 42.6 °F 42.1 °F 90% 30.20 in 9.0 mi South 4.6 mph - 0.00 in Rain Light Rain
8:53 AM 46.0 °F 43.1 °F 42.1 °F 86% 30.22 in 10.0 mi SE 5.8 mph - 0.00 in   Mostly Cloudy
9:53 AM 46.9 °F - 43.0 °F 86% 30.24 in 10.0 mi SE 4.6 mph - 0.00 in   Mostly Cloudy
10:53 AM 46.9 °F - 44.1 °F 90% 30.24 in 10.0 mi SE 4.6 mph - 0.01 in   Mostly Cloudy
11:53 AM 48.2 °F - 42.8 °F 82% 30.26 in 10.0 mi ESE 5.8 mph - N/A   Mostly Cloudy
12:53 PM 48.2 °F - 42.8 °F 82% 30.26 in 10.0 mi ESE 4.6 mph - N/A   Overcast
1:53 PM 46.4 °F 45.2 °F 42.8 °F 87% 30.27 in 8.0 mi SSE 3.5 mph - N/A   Overcast
2:53 PM 46.4 °F 44.3 °F 44.6 °F 93% 30.27 in 3.0 mi SSE 4.6 mph - N/A Rain Light Rain
3:53 PM 46.4 °F - 44.6 °F 93% 30.28 in 3.0 mi Calm Calm - N/A Rain Light Rain
4:53 PM 46.4 °F - 44.6 °F 93% 30.30 in 10.0 mi Calm Calm - N/A   Overcast
5:53 PM 46.4 °F - 44.6 °F 93% 30.31 in 10.0 mi Calm Calm - N/A   Overcast
6:53 PM 46.4 °F 43.5 °F 44.6 °F 93% 30.32 in 10.0 mi NW 5.8 mph - N/A   Overcast
7:53 PM 46.9 °F - 43.0 °F 86% 30.33 in 10.0 mi Variable 4.6 mph - 0.01 in   Overcast
7:56 PM 46.4 °F 45.2 °F 42.8 °F 87% 30.33 in 10.0 mi NNW 3.5 mph - N/A   Overcast
8:53 PM 46.4 °F 42.4 °F 42.8 °F 87% 30.35 in 10.0 mi NNW 8.1 mph - N/A   Overcast
9:53 PM 45.0 °F 43.5 °F 42.1 °F 90% 30.37 in 10.0 mi WNW 3.5 mph - N/A   Overcast
10:53 PM 46.0 °F - 43.0 °F 89% 30.39 in 10.0 mi Calm Calm - N/A   Overcast